Regional Weather Roundup
Issued by NWS Albany, NY

Home | Current Version | Previous Version | Graphics & Text | Print | Product List | Glossary Off
Versions: 1 2 3 4 5 6 7 8 9 10 11 12 13 14 15 16 17 18 19 20 21 22 23 24 25 26 27 28 29 30 31 32 33 34 35 36 37 38 39 40 41 42 43 44 45 46 47 48 49 50

000
ASUS41 KALY 250010
RWRALY

NEW YORK STATE HOURLY WEATHER ROUNDUP
NATIONAL WEATHER SERVICE ALBANY NY
800 PM EDT THU JUL 24 2014

NOTE: "FAIR" INDICATES FEW OR NO CLOUDS BELOW 12,000 FEET WITH NO
SIGNIFICANT WEATHER AND/OR NO OBSTRUCTIONS TO VISIBILITY.

NYZ032-033-038>043-046>054-057>066-NYZ062>081-250100-
EAST


CITY           SKY/WX    TMP DP  RH WIND       PRES   REMARKS
ALBANY         PTCLDY    71  53  52 W9        29.89R
GLENS FALLS    CLEAR     71  55  56 NE7       29.90R
POUGHKEEPSIE   PTCLDY    74  57  55 N3        29.87R
NEWBURGH       PTCLDY    73  57  56 N12       29.90R
MONTGOMERY     MOCLDY    74  59  59 NW6       29.89R
WHITE PLAINS   PTCLDY    71  57  61 N7        29.87R
ISLIP          PTCLDY    77  57  50 N8        29.84R
NEW YORK CITY  MOCLDY    77  57  50 N12       29.85R
CENTRAL PARK   CLEAR     76  56  49 VRB6      29.89R
$$

NYZ005>009-017-018-044>046-055-056-250100-
CENTRAL


CITY           SKY/WX    TMP DP  RH WIND       PRES   REMARKS
FULTON         CLEAR     64  52  64 W6        29.98F
SYRACUSE       PTCLDY    68  50  52 NW7       29.98S
ROME           CLEAR     67  52  58 W12       29.97R
ELMIRA         CLEAR     65  50  58 N6        29.99S
BINGHAMTON     CLEAR     62  49  62 N7        29.99S
MONTICELLO     PTCLDY    64  50  59 NW10      29.96R
$$

NYZ026>034-041>043-250100-
NORTH


CITY           SKY/WX    TMP DP  RH WIND       PRES   REMARKS
WATERTOWN      CLEAR     66  54  65 CALM      29.96F
FORT DRUM      NOT AVBL
MASSENA        CLEAR     64  56  75 S5        29.93F
SARANAC LAKE     N/A     61  48  62 MISG      29.96R
PLATTSBURGH    CLEAR     65  51  60 NW5       29.92R
$$

NYZ001>004-010>016-019>021-250100-
WEST


CITY           SKY/WX    TMP DP  RH WIND       PRES   REMARKS
NIAGARA FALLS  CLEAR     70  46  42 CALM      30.00S
BUFFALO        PTCLDY    70  46  42 N5        30.01S
DUNKIRK        CLEAR     68  45  43 CALM      30.02S
JAMESTOWN      CLEAR     63  46  55 N6        30.04S
WELLSVILLE     CLEAR     64  45  49 N5        30.05R
ROCHESTER      CLEAR     70  48  45 NW5       30.00S
PENN YAN       CLEAR     67  47  48 N5        30.01S
$$

             KEY
       WCI = WIND CHILL INDEX
       VSB = VISIBILITY
       HX  = HEAT INDEX
$$


USA.gov is the U.S. government's official web portal to all federal, state and local government web resources and services.